Temp
83 84 81 75 62 64 59 63 73 68 70 74 75 73 68 68 66 57 71 73 75 76 80 81 82 83 84 83 83 83 83 83 83 83 83 84 84 84 84 84 84 84 84 85 85 84 85 84 84
84 84 78 69 58 55 60 70 68 73 75 74 74 74 73 64 71 68 70 76 79 77 80 80 81 83 84 83 83 83 83 83 83 84 84 84 84 84 84 84 84 84 84 85 85 85 85 84 84
86 87 69 64 65 57 58 70 72 76 79 78 75 80 74 68 72 71 77 79 80 81 82 81 82 83 84 83 83 82 84 84 83 83 83 84 84 84 84 84 84 84 84 84 84 85 84 84 84
78 76 74 63 64 69 71 73 76 75 80 82 80 70 76 80 75 78 83 82 80 82 82 82 83 84 84 83 84 84 84 84 84 83 83 84 84 84 84 84 84 84 84 84 84 84 84 84 84
74 71 66 65 70 75 78 79 80 76 77 78 78 70 68 77 83 81 82 84 81 81 81 82 83 84 84 84 84 84 84 84 84 84 84 84 84 84 84 84 84 84 84 84 84 84 84 84 84
72 76 66 63 72 74 72 74 80 76 80 78 73 70 69 81 82 82 80 85 83 80 82 82 84 84 84 84 84 84 84 84 84 84 84 84 84 84 84 84 84 83 84 84 84 84 84 84 84
67 66 72 71 73 73 73 76 77 77 81 77 80 70 73 80 84 84 87 86 84 83 81 81 81 83 84 84 84 84 84 84 84 84 84 84 84 84 84 84 84 85 85 85 84 84 84 83 84
73 67 74 74 72 73 82 82 87 83 81 87 86 69 68 80 86 87 87 84 82 83 82 80 80 80 79 79 84 84 84 84 84 84 84 84 84 84 85 84 84 84 84 84 84 84 84 83 83
84 65 70 75 75 78 87 84 91 91 84 86 86 81 81 85 86 83 81 82 79 80 82 82 81 80 80 78 82 84 84 84 84 84 84 81 74 78 80 81 84 84 84 84 84 84 84 84 84
75 71 79 86 84 82 87 86 87 85 83 82 84 85 85 85 84 82 80 78 79 81 81 83 83 81 81 85 78 76 79 78 77 78 77 74 74 74 80 81 84 84 84 84 84 84 84 84 76
79 78 89 90 91 90 87 86 91 84 79 83 79 80 83 83 83 82 82 81 80 82 83 80 83 83 82 80 79 77 77 79 76 77 75 76 75 75 77 78 78 75 82 78 81 80 77 77 75
77 89 92 91 93 91 87 91 87 86 84 89 86 85 84 82 82 83 82 82 81 82 82 79 80 77 81 79 80 80 78 77 76 78 78 74 73 74 77 75 75 75 75 75 76 74 77 76 76
76 78 86 88 92 92 93 87 87 86 91 90 88 86 84 84 84 86 86 86 85 83 82 80 77 75 77 78 79 77 78 78 79 80 79 76 73 74 75 75 74 74 75 74 76 77 77 76 75
71 81 77 79 74 88 85 84 86 88 91 88 86 84 84 84 85 86 87 85 85 85 83 82 77 77 81 78 78 77 78 79 80 78 81 77 74 72 73 73 73 73 73 73 74 74 73 72 74
80 75 76 73 77 79 84 78 80 85 90 86 85 85 86 86 88 85 86 87 87 85 84 83 83 81 80 79 79 78 80 81 77 77 76 76 75 74 74 72 73 72 73 74 73 74 74 73 76
76 71 62 77 82 81 78 63 80 85 86 83 85 86 87 86 87 86 88 88 89 88 85 86 90 84 80 79 79 79 81 78 74 75 74 74 77 75 74 73 74 75 73 73 73 73 72 73 73
67 62 68 73 85 82 77 68 79 84 86 83 84 85 86 86 88 89 91 89 88 85 84 88 85 84 80 79 79 77 75 74 73 74 74 75 77 77 75 75 75 76 74 74 74 73 73 71 73
58 63 70 67 80 84 76 75 81 84 86 84 83 84 84 85 86 89 91 91 90 86 84 83 83 83 81 79 76 74 73 73 73 74 74 77 77 78 75 75 75 75 74 73 73 73 73 73 72
73 72 73 78 84 81 77 77 81 84 87 84 82 82 84 85 88 90 91 91 92 87 84 83 79 81 79 79 73 72 72 72 74 78 79 78 79 78 75 74 74 75 74 74 75 74 74 73 74
74 73 74 74 82 82 80 78 83 86 86 85 85 83 85 85 86 88 87 90 88 88 85 81 81 80 80 81 76 75 73 75 75 77 77 78 79 78 77 75 75 75 74 75 75 74 71 71 72
73 72 80 75 83 86 80 74 79 78 77 80 79 85 87 87 86 86 87 88 86 83 83 82 80 79 79 79 75 72 71 75 73 73 74 76 79 78 78 78 76 75 74 73 74 74 72 70 71
73 85 87 85 74 67 77 59 66 69 70 77 82 79 87 88 89 87 88 85 87 85 84 82 82 81 80 78 76 74 71 71 74 73 74 74 77 78 78 78 77 76 75 73 73 75 73 71 68
78 88 84 83 74 68 73 64 63 69 64 68 74 81 88 88 89 89 88 89 89 87 85 84 82 83 82 78 78 76 73 74 75 75 73 73 75 77 79 78 77 74 74 74 74 73 72 71 70
88 82 79 77 68 58 69 66 61 62 69 72 76 83 89 89 91 90 91 91 88 89 87 85 81 81 81 79 78 77 75 74 75 73 72 72 73 75 76 78 77 76 74 74 72 73 72 69 68
78 67 55 54 54 55 69 64 69 75 76 78 78 78 85 91 91 89 89 89 89 88 87 85 82 79 80 79 77 78 76 75 74 74 74 73 73 73 75 75 75 75 74 73 73 71 69 68 66
71 62 55 48 51 57 68 61 69 85 84 82 85 83 86 83 89 89 90 90 90 88 87 84 82 80 80 80 80 78 77 78 76 77 77 78 77 77 75 75 74 75 74 73 72 69 68 67 66
70 61 70 59 58 56 61 68 77 79 78 84 81 85 88 86 90 90 91 91 90 88 87 85 81 81 81 80 80 79 80 77 78 77 76 76 77 77 75 75 74 73 73 72 70 67 67 66 64
68 74 61 58 48 49 58 62 63 72 75 80 82 86 86 88 92 92 91 91 91 89 88 86 83 81 81 81 81 81 79 78 76 76 75 75 74 75 74 73 73 72 71 71 68 67 65 64 62
69 63 64 63 59 51 49 58 70 76 75 78 88 89 89 88 91 92 92 91 91 90 89 85 83 82 82 83 82 81 81 80 77 78 75 74 74 75 74 72 71 70 70 67 66 65 64 63 62
74 72 64 55 56 57 55 61 81 81 84 84 88 87 89 93 91 93 93 90 90 88 88 85 84 83 83 84 82 81 82 81 78 77 76 76 74 73 72 71 70 69 68 67 66 65 64 62 61
MSLP
1008.54 1008.71 1008.88 1008.79 1008.85 1007.73 1007.86 1008.48 1008.21 1008.58 1008.95 1009.52 1009.87 1010.22 1011.21 1012.17 1012.77 1014.24 1014.20 1014.61 1014.76 1014.97 1014.85 1014.88 1015.05 1015.29 1015.37 1015.51 1015.83 1015.76 1016.09 1016.11 1016.38 1016.40 1016.47 1016.70 1016.79 1016.95 1016.93 1017.17 1017.36 1017.47 1017.60 1017.59 1017.72 1017.85 1017.82 1017.87 1017.97
1008.14 1008.74 1008.93 1008.50 1008.24 1007.61 1007.66 1007.77 1007.83 1008.05 1008.67 1009.36 1009.76 1010.20 1010.79 1012.45 1012.79 1013.72 1014.48 1014.31 1014.46 1014.83 1014.75 1014.90 1015.06 1015.31 1015.41 1015.61 1015.86 1015.97 1016.17 1016.27 1016.38 1016.55 1016.72 1016.94 1017.05 1017.06 1017.12 1017.24 1017.42 1017.50 1017.62 1017.68 1017.86 1017.95 1017.95 1018.03 1018.19
1008.30 1008.29 1008.25 1007.62 1007.60 1007.35 1007.38 1007.24 1007.56 1008.03 1008.43 1008.51 1009.04 1009.57 1010.64 1012.09 1012.59 1013.11 1013.17 1013.64 1014.12 1014.37 1014.60 1014.88 1015.19 1015.29 1015.45 1015.48 1015.89 1016.17 1016.19 1016.39 1016.55 1016.79 1016.93 1017.01 1017.22 1017.14 1017.19 1017.38 1017.52 1017.60 1017.75 1017.85 1017.97 1018.07 1018.18 1018.30 1018.36
1008.23 1007.80 1007.83 1007.17 1007.18 1006.77 1006.17 1006.72 1007.15 1007.82 1007.88 1008.20 1008.48 1009.56 1010.82 1011.70 1012.26 1012.48 1012.85 1013.45 1013.96 1014.14 1014.51 1014.81 1015.18 1015.06 1015.45 1015.49 1015.99 1016.10 1016.22 1016.36 1016.57 1016.84 1016.90 1017.12 1017.23 1017.21 1017.33 1017.48 1017.54 1017.70 1017.81 1017.95 1018.06 1018.22 1018.28 1018.42 1018.42
1008.62 1007.42 1006.39 1006.21 1006.41 1006.52 1006.70 1006.51 1006.72 1007.57 1007.81 1008.02 1008.80 1010.22 1011.36 1012.14 1011.99 1012.26 1012.75 1013.10 1013.83 1014.12 1014.48 1014.84 1015.04 1014.98 1015.44 1015.69 1015.89 1016.11 1016.36 1016.37 1016.50 1016.70 1016.90 1016.97 1017.18 1017.25 1017.43 1017.55 1017.61 1017.75 1017.94 1018.05 1018.12 1018.21 1018.29 1018.49 1018.61
1008.55 1006.78 1005.59 1005.32 1005.66 1006.71 1006.82 1007.11 1006.87 1006.81 1007.38 1008.12 1009.38 1010.51 1012.06 1011.92 1011.95 1012.07 1012.50 1012.82 1013.33 1014.07 1014.55 1014.70 1015.01 1015.15 1015.52 1015.73 1015.89 1016.14 1016.34 1016.25 1016.32 1016.66 1016.80 1016.89 1017.13 1017.31 1017.47 1017.56 1017.62 1017.89 1017.98 1018.11 1018.15 1018.22 1018.34 1018.32 1018.47
1008.33 1006.78 1004.64 1004.36 1004.74 1005.46 1005.66 1006.21 1005.98 1006.19 1006.51 1007.68 1008.43 1009.86 1010.82 1011.41 1011.42 1011.64 1012.07 1012.56 1013.21 1013.73 1014.42 1014.73 1015.09 1015.27 1015.42 1015.77 1015.95 1016.00 1016.09 1016.13 1016.33 1016.64 1016.57 1016.73 1016.94 1017.17 1017.36 1017.47 1017.59 1017.71 1017.87 1018.12 1018.26 1018.36 1018.40 1018.36 1018.50
1009.10 1007.58 1003.88 1003.31 1003.61 1003.98 1003.72 1004.38 1004.20 1004.97 1005.71 1006.70 1007.29 1008.95 1010.44 1010.80 1010.94 1011.29 1011.82 1012.56 1013.01 1013.76 1013.94 1014.48 1015.02 1015.29 1015.51 1015.79 1015.83 1015.58 1015.94 1016.25 1016.29 1016.38 1016.51 1016.79 1017.03 1017.11 1017.04 1017.23 1017.37 1017.56 1017.82 1018.00 1018.09 1018.36 1018.42 1018.48 1018.60
1007.14 1006.86 1003.51 1002.57 1002.66 1002.90 1002.90 1003.11 1003.49 1004.00 1005.18 1005.97 1006.59 1007.53 1009.09 1010.11 1010.60 1011.18 1011.99 1012.51 1013.09 1013.64 1013.90 1014.22 1014.57 1014.90 1015.22 1015.47 1015.55 1015.61 1015.92 1016.12 1016.29 1016.38 1016.79 1017.20 1017.44 1017.34 1017.17 1017.23 1017.24 1017.40 1017.59 1017.87 1018.06 1018.28 1018.37 1018.47 1018.69
1005.44 1003.41 1001.93 1001.67 1002.02 1002.35 1002.49 1002.83 1003.22 1003.72 1004.76 1005.69 1006.73 1007.89 1009.19 1009.86 1010.47 1011.07 1011.83 1012.21 1012.94 1013.36 1013.65 1013.87 1014.12 1014.50 1014.84 1015.02 1015.61 1015.73 1015.96 1016.07 1016.35 1016.36 1016.90 1017.46 1016.79 1017.27 1017.45 1017.35 1017.28 1017.35 1017.50 1017.78 1017.99 1018.16 1018.33 1018.45 1018.87
1003.44 1001.64 1001.05 1001.18 1001.38 1001.75 1002.14 1002.48 1002.78 1003.47 1004.19 1004.85 1006.13 1007.72 1008.78 1009.62 1010.20 1010.69 1011.36 1011.79 1012.45 1012.75 1013.07 1013.54 1014.15 1014.30 1014.57 1014.92 1015.36 1015.84 1015.76 1016.00 1016.28 1016.30 1016.55 1016.95 1017.21 1017.31 1017.47 1017.28 1017.40 1017.65 1017.53 1017.74 1017.89 1018.09 1018.29 1018.47 1018.66
1002.96 1002.13 1000.86 1001.17 1001.34 1001.47 1001.61 1001.78 1002.43 1002.99 1003.42 1004.21 1005.67 1007.01 1008.40 1009.12 1009.63 1010.20 1010.81 1011.48 1012.06 1012.44 1012.85 1013.42 1013.87 1014.40 1014.41 1014.93 1015.11 1015.33 1015.54 1015.87 1016.07 1016.03 1016.06 1016.57 1016.82 1017.03 1017.28 1017.44 1017.64 1017.80 1017.75 1017.81 1017.81 1018.05 1018.13 1018.32 1018.45
1004.27 1003.09 1003.13 1003.22 1002.37 1001.58 1001.49 1002.22 1002.39 1002.77 1003.21 1004.45 1005.95 1007.00 1008.09 1008.96 1009.34 1009.66 1010.10 1010.74 1011.37 1012.01 1012.31 1012.82 1013.74 1013.71 1014.49 1014.94 1015.03 1015.24 1015.24 1015.54 1015.68 1015.66 1015.75 1015.85 1016.46 1016.68 1017.01 1017.35 1017.58 1017.57 1017.45 1017.61 1017.71 1017.75 1017.81 1018.07 1018.32
1006.47 1004.68 1004.51 1004.47 1004.47 1002.89 1002.41 1002.55 1002.88 1003.12 1003.55 1004.59 1005.64 1006.85 1007.81 1008.48 1008.75 1009.06 1009.61 1010.22 1010.77 1011.39 1011.75 1012.32 1013.27 1014.15 1014.35 1014.46 1014.53 1015.08 1015.15 1015.26 1015.27 1015.66 1015.54 1015.94 1016.08 1016.72 1016.92 1017.37 1017.37 1017.27 1017.58 1017.38 1017.52 1017.75 1017.96 1018.23 1018.06
1006.37 1006.26 1006.43 1006.67 1005.39 1004.10 1003.08 1002.77 1003.20 1003.48 1003.84 1004.65 1005.49 1006.42 1007.19 1007.70 1007.97 1008.28 1008.63 1009.38 1009.93 1010.73 1011.20 1011.99 1012.72 1013.67 1013.68 1013.99 1014.20 1014.83 1015.03 1015.17 1015.59 1015.85 1016.01 1016.17 1016.22 1016.41 1016.63 1017.14 1017.10 1017.27 1017.53 1017.58 1017.51 1017.52 1017.64 1017.85 1017.77
1007.33 1007.50 1006.28 1005.36 1005.06 1004.10 1003.94 1003.27 1002.83 1003.23 1003.82 1004.56 1005.19 1005.87 1006.53 1006.94 1007.28 1007.61 1007.99 1008.61 1009.31 1009.99 1010.81 1011.46 1011.99 1012.67 1013.23 1013.60 1013.92 1014.28 1014.52 1014.91 1015.84 1015.77 1015.78 1016.10 1016.24 1016.14 1016.24 1016.79 1017.04 1017.21 1017.52 1017.44 1017.30 1017.43 1017.64 1017.84 1017.91
1007.52 1006.22 1005.92 1004.85 1003.24 1003.93 1004.33 1003.40 1002.50 1002.89 1003.40 1004.10 1004.91 1005.50 1006.07 1006.56 1006.79 1007.08 1007.42 1008.06 1008.80 1009.42 1010.17 1010.92 1011.80 1012.34 1012.92 1013.44 1013.65 1014.02 1014.61 1015.01 1015.98 1015.80 1015.80 1016.03 1016.16 1015.96 1016.17 1016.53 1016.59 1016.78 1017.03 1017.01 1017.19 1017.35 1017.46 1017.73 1017.93
1006.30 1005.63 1005.37 1005.03 1002.38 1002.84 1003.42 1003.12 1002.36 1002.53 1003.06 1003.81 1004.32 1005.15 1005.78 1006.12 1006.35 1006.65 1007.02 1007.68 1008.42 1009.07 1009.73 1010.33 1011.20 1011.99 1012.69 1013.29 1013.71 1014.43 1014.62 1014.69 1015.81 1015.82 1015.55 1015.93 1015.85 1015.84 1016.25 1016.43 1016.45 1016.56 1016.93 1016.88 1017.02 1017.21 1017.33 1017.58 1017.83
1003.53 1004.33 1004.95 1004.02 1002.56 1002.98 1002.04 1002.12 1001.62 1002.12 1002.92 1003.32 1004.14 1004.55 1005.21 1005.62 1005.80 1006.22 1006.54 1007.07 1007.96 1008.80 1009.67 1010.33 1011.00 1011.83 1012.49 1013.37 1014.05 1014.58 1014.86 1014.86 1015.50 1015.14 1015.24 1015.40 1015.34 1015.67 1016.04 1016.24 1016.33 1016.51 1016.77 1016.67 1016.81 1017.11 1017.24 1017.45 1017.56
1002.36 1002.67 1002.51 1002.82 1001.74 1001.28 1000.27 1000.83 1001.16 1001.69 1002.32 1003.31 1003.85 1004.45 1004.94 1005.16 1005.30 1005.87 1006.18 1006.65 1007.57 1008.35 1009.31 1010.10 1010.65 1011.46 1012.14 1012.82 1013.48 1013.94 1014.30 1014.46 1014.61 1014.68 1014.98 1015.10 1015.22 1015.43 1015.80 1016.10 1016.24 1016.35 1016.37 1016.56 1016.80 1017.05 1017.39 1017.56 1017.46
1001.05 1000.95 1000.86 1000.90 999.72 999.09 999.17 1000.57 1001.70 1003.32 1003.66 1003.12 1003.53 1003.86 1003.66 1004.10 1004.67 1005.18 1005.86 1006.41 1007.08 1008.10 1008.92 1009.65 1010.35 1011.04 1011.78 1012.46 1013.22 1014.07 1014.45 1014.51 1014.52 1014.83 1014.97 1015.17 1015.11 1015.28 1015.55 1015.72 1015.89 1016.21 1016.30 1016.59 1016.75 1016.92 1017.27 1017.54 1017.43
999.53 999.31 998.81 998.76 998.99 999.36 999.37 1001.59 1002.99 1002.99 1003.13 1001.93 1000.83 1001.82 1002.53 1002.87 1003.68 1004.60 1005.13 1005.92 1006.55 1007.50 1008.44 1009.20 1009.83 1010.56 1011.36 1012.13 1012.88 1013.52 1013.91 1014.45 1014.53 1014.70 1014.94 1015.18 1015.17 1015.30 1015.47 1015.66 1015.71 1015.87 1016.30 1016.49 1016.66 1016.80 1017.03 1017.27 1017.61
998.05 997.76 998.30 998.87 999.51 999.87 1000.05 1001.33 1003.11 1003.49 1003.65 1002.89 1002.26 1002.36 1002.01 1001.86 1002.58 1003.56 1004.19 1004.84 1005.72 1006.80 1007.78 1008.62 1009.31 1010.09 1010.83 1011.55 1012.08 1012.79 1013.38 1013.81 1014.01 1014.35 1014.72 1015.05 1015.26 1015.22 1015.38 1015.36 1015.66 1016.18 1016.33 1016.52 1016.72 1016.94 1017.14 1017.37 1017.70
997.97 998.27 998.74 999.43 1000.21 1000.97 1000.71 1001.03 1002.57 1003.04 1002.48 1002.45 1001.88 1001.56 1000.83 1001.41 1001.56 1002.49 1003.20 1003.97 1004.98 1005.96 1007.04 1008.03 1008.98 1009.73 1010.31 1010.97 1011.61 1012.31 1012.98 1013.42 1013.92 1014.36 1014.77 1014.93 1015.03 1015.12 1015.08 1015.14 1015.37 1015.67 1016.24 1016.50 1016.78 1017.02 1017.23 1017.65 1017.81
998.46 999.62 1000.48 1001.28 1001.33 1001.49 1000.26 1000.32 999.67 1000.69 1000.76 1000.45 1000.78 1001.43 1001.58 1000.49 1000.52 1001.67 1002.66 1003.40 1004.35 1005.31 1006.24 1007.39 1008.37 1009.26 1009.82 1010.44 1011.19 1011.79 1012.33 1012.91 1013.35 1013.84 1014.30 1014.70 1014.92 1015.03 1015.04 1015.25 1015.54 1015.92 1016.18 1016.42 1016.59 1017.06 1017.50 1017.75 1017.94
998.89 999.81 1001.26 1002.00 1002.19 1001.63 1000.29 999.95 999.25 998.48 998.71 999.20 999.74 998.85 997.96 1000.65 1000.54 1000.70 1001.36 1002.31 1003.27 1004.33 1005.34 1006.58 1007.67 1008.54 1009.32 1009.94 1010.65 1011.31 1011.75 1012.30 1012.77 1013.22 1013.68 1014.00 1014.30 1014.56 1014.88 1015.19 1015.57 1015.85 1016.13 1016.47 1016.73 1017.29 1017.66 1017.92 1018.15
998.61 999.45 1000.26 1001.59 1001.82 1001.96 1000.98 1000.36 999.14 999.03 998.86 998.46 998.81 997.53 997.46 999.07 999.92 999.83 1000.50 1001.35 1002.41 1003.48 1004.48 1005.61 1006.99 1007.90 1008.63 1009.38 1010.08 1010.81 1011.34 1011.90 1012.43 1012.79 1013.12 1013.47 1013.84 1014.19 1014.72 1015.21 1015.61 1015.84 1016.20 1016.55 1017.09 1017.49 1017.74 1018.06 1018.47
998.17 999.11 1000.36 1001.68 1003.05 1002.98 1001.55 1000.00 999.18 998.90 998.67 998.67 998.13 997.83 997.85 998.52 998.60 999.23 999.94 1000.74 1001.67 1002.64 1003.67 1004.97 1006.06 1007.03 1007.86 1008.75 1009.39 1010.11 1010.85 1011.41 1011.91 1012.29 1012.85 1013.13 1013.52 1014.05 1014.59 1015.12 1015.54 1015.95 1016.38 1016.77 1017.13 1017.54 1017.92 1018.23 1018.57
999.01 999.56 1000.65 1001.68 1002.89 1003.37 1002.50 1000.94 998.39 997.81 997.54 997.20 996.11 997.71 997.90 996.66 997.75 998.60 999.45 1000.19 1000.87 1001.88 1002.96 1004.32 1005.50 1006.52 1007.41 1008.12 1008.88 1009.65 1010.34 1010.85 1011.38 1011.83 1012.31 1012.75 1013.28 1013.83 1014.42 1014.95 1015.62 1016.12 1016.58 1017.09 1017.29 1017.71 1017.98 1018.40 1018.65
999.76 1000.28 1000.86 1002.40 1003.07 1002.67 1001.76 999.93 997.95 997.59 996.77 997.04 996.54 996.61 996.83 997.13 997.79 998.19 998.98 999.79 1000.53 1001.37 1002.50 1003.48 1004.78 1005.72 1006.51 1007.10 1008.24 1009.11 1009.68 1010.25 1010.86 1011.35 1011.95 1012.54 1013.26 1013.93 1014.47 1015.13 1015.71 1016.32 1016.77 1017.27 1017.52 1017.83 1018.18 1018.36 1018.69
Wind_Speed
13 10 4 2 0 5 6 6 13 13 7 5 6 7 9 4 3 4 3 7 9 4 5 5 8 12 13 13 11 12 10 10 10 10 10 9 9 9 11 10 7 7 6 8 8 7 8 10 12
9 11 3 3 3 7 8 13 11 9 11 11 12 13 7 4 5 9 9 8 8 7 6 7 9 11 14 13 11 10 10 8 9 10 10 8 6 7 8 8 7 6 7 8 8 9 9 10 11
9 12 2 2 1 8 8 12 13 14 15 11 5 10 9 12 10 13 7 12 10 8 9 8 11 13 14 14 10 8 9 8 8 9 8 8 6 5 6 7 5 7 8 8 7 10 10 9 9
1 4 5 1 12 3 11 15 16 14 10 12 13 9 8 8 15 11 12 14 10 8 11 12 14 15 13 13 11 9 9 9 9 8 8 7 6 5 4 6 5 6 8 10 10 10 10 10 7
2 3 3 4 15 8 11 17 17 8 11 15 12 10 9 16 11 12 15 15 11 13 11 11 13 15 12 12 10 8 8 9 9 7 7 7 5 5 6 6 6 6 8 8 10 10 9 8 8
5 4 3 6 19 16 11 7 18 13 14 21 16 13 8 7 15 16 13 15 15 14 11 11 13 13 13 11 11 9 9 9 8 8 7 6 6 6 7 7 8 8 9 9 10 11 9 8 6
6 5 11 12 11 9 8 12 11 12 18 12 20 8 6 16 16 17 16 17 15 15 13 9 8 11 14 12 12 11 8 8 8 7 8 9 7 8 9 9 8 9 10 9 8 9 9 8 6
4 5 12 10 10 5 7 14 20 21 15 22 18 8 12 14 17 10 13 14 16 15 14 12 9 7 7 7 12 12 9 9 8 8 9 9 8 8 10 9 9 9 9 9 9 9 7 6 4
8 6 5 12 10 5 10 15 14 16 18 13 15 9 21 19 12 8 8 12 9 10 14 13 13 11 10 7 8 11 12 10 8 7 8 5 2 2 5 8 11 10 10 10 9 9 8 6 4
4 3 11 11 8 6 11 11 10 10 20 17 13 19 23 19 16 15 13 12 12 15 13 13 13 11 9 8 5 5 6 4 5 6 5 5 4 4 5 7 11 11 10 10 9 8 7 5 2
8 7 13 13 10 13 9 10 10 12 8 16 23 25 25 22 17 13 14 13 14 10 8 10 9 10 9 7 7 3 3 4 4 6 6 7 4 4 4 3 3 3 8 3 5 5 2 3 4
5 14 13 11 8 8 10 13 8 9 8 20 26 26 21 21 17 16 11 12 12 8 8 8 8 5 6 5 6 7 5 4 4 5 6 5 4 5 3 3 3 3 3 4 4 3 5 5 5
10 15 14 23 8 8 6 6 2 14 16 23 24 23 20 16 15 17 17 17 16 13 10 7 6 10 7 5 6 3 5 4 5 4 6 4 4 4 4 2 2 2 3 3 4 2 4 4 2
12 10 13 25 24 8 5 5 5 6 20 24 24 22 19 19 19 18 19 18 18 15 15 13 9 9 11 6 8 5 4 4 4 3 4 2 4 4 3 4 3 4 3 1 3 3 4 1 0
14 3 12 10 17 5 6 1 3 2 18 21 20 19 20 18 17 12 11 18 19 15 16 16 16 16 9 8 6 5 4 4 3 3 2 3 3 5 5 4 3 3 3 3 2 2 4 3 2
11 4 7 5 5 5 6 10 4 7 11 19 19 17 17 15 14 9 10 13 16 13 17 17 14 13 9 8 6 4 4 3 4 1 2 5 5 5 4 3 4 4 5 4 2 1 1 2 2
3 5 2 12 8 8 8 7 8 5 8 15 16 16 15 14 12 12 12 11 15 10 12 17 14 13 9 8 6 5 6 4 4 3 2 7 6 5 4 3 3 4 4 3 3 2 2 2 3
9 5 2 8 7 9 12 14 4 9 10 14 14 13 12 14 11 13 13 13 15 13 11 8 10 13 10 8 5 4 3 3 4 5 5 6 6 6 5 4 4 4 3 3 2 4 3 3 3
13 12 18 24 22 18 19 17 16 14 12 14 12 13 13 13 10 14 14 11 15 16 14 12 10 13 8 7 4 4 4 3 4 6 8 7 6 6 6 4 4 4 4 5 4 2 2 2 1
17 10 7 16 27 17 21 16 18 18 14 11 13 12 13 11 12 14 11 13 17 19 16 11 13 13 9 8 4 3 3 3 2 6 6 6 6 6 5 4 4 5 2 3 3 3 1 1 1
10 10 11 14 24 8 4 8 19 4 6 9 1 6 14 16 15 17 14 14 13 13 16 14 14 13 10 9 5 3 3 0 3 3 3 3 6 5 4 3 3 3 3 2 1 3 2 0 2
10 21 8 8 3 2 2 2 2 4 6 7 21 10 17 19 16 16 17 13 14 15 15 15 16 15 9 9 7 7 5 4 3 4 4 3 3 3 4 2 4 3 3 3 2 2 2 2 2
8 8 6 8 8 6 5 6 5 6 5 8 18 11 19 19 19 20 21 17 14 17 16 15 15 15 10 9 9 6 6 4 3 4 7 5 4 5 4 4 2 4 3 2 3 3 3 2 2
9 9 11 7 3 5 10 6 7 8 12 14 20 16 14 18 20 22 21 18 16 17 17 16 15 16 13 10 9 10 9 7 6 5 5 4 3 4 5 5 5 5 3 3 3 4 6 4 4
7 7 5 6 5 8 12 3 10 22 16 16 22 12 15 16 20 22 21 19 17 20 20 18 18 14 14 12 9 10 9 8 9 8 6 6 4 3 6 5 5 4 5 6 4 4 5 3 3
8 4 6 4 4 8 8 6 4 13 15 12 12 8 10 12 14 23 24 21 20 22 21 19 19 17 15 14 14 9 8 6 6 8 6 7 7 7 6 6 6 6 6 5 4 3 4 5 4
7 3 8 2 6 4 5 7 5 5 6 14 13 12 18 16 17 22 24 22 21 21 23 20 20 17 17 15 12 10 10 8 8 8 6 5 5 6 7 8 7 6 6 5 5 4 4 5 3
2 5 7 5 4 7 8 8 4 6 6 5 10 4 11 19 22 19 22 20 20 19 21 19 21 21 19 15 14 12 9 8 8 8 7 7 7 7 8 8 7 7 6 4 6 5 5 7 4
6 2 3 4 6 4 3 9 2 5 14 7 19 23 10 12 21 19 16 17 21 17 20 19 19 19 18 16 14 13 10 9 7 9 7 8 7 10 10 9 7 7 6 6 6 6 7 7 5
6 9 2 7 10 5 6 11 6 8 5 14 23 15 9 6 17 19 17 16 19 17 19 19 18 18 18 18 15 13 12 11 9 9 9 11 11 8 8 7 7 7 6 6 7 6 6 7 6
Wind_Direction
174 180 206 289 265 83 72 80 100 115 113 109 129 95 86 65 118 163 119 178 214 171 147 120 126 146 140 132 131 128 130 125 128 118 111 107 101 100 99 101 104 104 107 97 98 104 98 93 100
179 176 235 296 53 83 72 114 103 108 112 127 115 131 122 72 86 114 143 205 193 185 148 133 137 147 146 138 139 140 127 133 144 130 126 127 120 110 112 117 107 97 104 112 103 114 106 110 107
188 208 223 245 267 106 118 123 118 116 139 155 134 122 109 134 133 146 200 176 189 174 145 140 145 135 146 137 147 142 117 113 106 109 127 131 138 127 126 116 106 107 111 111 115 114 114 117 113
247 223 263 276 112 184 130 130 131 139 146 131 107 83 79 137 149 176 170 175 184 179 144 151 158 134 131 128 144 135 131 120 122 123 129 140 139 132 136 130 127 119 127 132 118 111 117 132 120
139 249 204 151 133 128 90 139 151 129 150 107 104 98 109 151 153 176 168 175 175 141 145 156 158 134 136 142 131 129 138 138 132 131 144 140 157 144 144 151 147 145 132 134 130 131 128 129 136
288 273 139 97 85 101 95 288 113 157 126 108 103 112 156 197 164 175 175 175 144 138 150 154 151 138 145 141 145 146 157 145 136 157 164 157 165 152 143 156 152 145 146 149 137 141 138 142 149
286 282 118 110 98 122 183 166 172 164 147 136 141 108 141 157 170 181 181 145 147 147 149 142 148 155 146 156 156 147 138 140 154 173 163 172 169 164 163 164 160 171 149 149 152 146 149 152 160
277 284 99 102 99 86 182 181 152 144 145 136 141 148 162 162 176 170 136 142 135 148 150 153 161 153 158 169 161 143 155 159 160 181 181 180 185 178 177 164 174 160 154 156 158 156 160 162 169
200 280 68 105 111 179 121 95 103 130 137 161 179 130 152 160 157 137 115 131 140 155 162 162 165 170 172 167 166 163 174 170 172 193 177 174 60 247 214 174 178 171 172 167 168 172 175 178 173
189 188 114 119 147 139 139 116 133 137 156 164 130 128 148 161 164 170 149 147 160 170 177 172 172 171 155 159 182 167 181 167 181 198 175 127 137 234 218 225 178 181 179 172 180 183 187 194 89
271 88 95 108 121 116 120 134 162 159 149 151 147 147 155 166 173 163 154 150 170 196 148 169 160 172 169 183 170 180 189 176 191 206 192 169 185 211 234 196 158 183 186 180 193 199 200 215 189
24 13 115 118 127 149 169 156 167 174 177 145 146 150 157 165 173 166 164 160 157 176 175 104 125 75 176 167 171 182 176 177 190 206 223 173 194 186 212 175 166 177 198 215 194 195 200 213 235
26 47 2 25 304 124 104 57 205 121 130 134 144 152 160 170 174 177 179 174 176 180 161 150 153 162 212 176 172 165 169 177 208 193 215 188 152 145 162 151 144 213 189 218 195 198 215 181 206
321 70 65 24 302 36 47 63 53 127 135 140 148 158 166 182 190 189 180 182 180 177 172 171 174 188 193 156 142 172 165 188 144 166 206 160 108 141 142 132 157 123 272 179 151 132 110 264 34
348 334 101 189 247 277 343 63 138 343 145 150 154 163 175 191 191 182 177 175 174 166 168 172 179 172 154 147 141 148 191 152 140 121 82 333 170 160 166 164 157 180 170 231 122 149 167 192 232
295 331 10 251 301 284 66 277 254 234 164 159 161 170 178 193 188 176 182 169 165 163 167 171 173 159 152 147 145 170 169 150 105 192 198 257 243 193 163 169 176 173 175 196 200 208 274 241 234
287 291 162 296 212 216 199 245 230 228 182 156 164 174 178 193 191 179 184 157 161 161 151 172 156 158 152 151 165 155 132 84 101 143 236 237 208 187 163 184 177 163 184 191 198 222 201 250 280
217 329 146 260 283 223 208 257 221 191 172 163 161 172 184 190 196 177 177 161 163 157 161 161 144 160 163 152 153 101 112 175 142 234 179 223 184 168 158 166 192 191 204 233 176 200 226 213 240
124 107 307 311 288 270 239 205 183 187 175 164 172 173 186 189 194 173 174 173 168 159 165 168 138 162 141 151 139 154 185 184 190 191 177 177 166 162 148 180 173 194 215 217 205 165 168 286 185
144 176 189 209 262 261 268 169 178 176 178 162 172 174 190 190 185 173 172 177 157 165 166 156 152 156 150 160 160 143 139 223 166 161 159 173 151 132 145 164 195 198 195 152 137 124 8 269 188
188 203 245 211 238 252 285 142 156 61 94 123 67 245 188 192 186 173 178 174 151 155 161 156 159 163 159 169 123 95 104 228 87 136 105 127 128 127 144 192 166 146 138 117 99 135 172 260 315
223 222 286 319 28 266 47 215 122 182 176 170 220 215 202 187 182 173 174 170 163 163 159 157 164 169 165 159 151 153 156 155 181 160 143 140 155 170 174 148 156 135 127 133 181 205 138 116 252
275 298 331 327 331 19 300 81 252 184 188 197 245 235 217 184 179 177 177 174 167 162 163 164 158 167 175 155 154 150 158 176 161 145 136 151 178 226 173 183 169 116 113 133 147 110 87 49 31
341 353 338 324 359 345 260 166 249 190 191 211 232 236 213 186 182 178 175 172 169 162 162 167 162 172 171 169 160 169 173 160 150 147 150 162 180 182 190 195 157 139 132 121 96 83 78 61 55
348 355 330 339 346 230 258 295 227 198 192 197 214 229 272 197 181 173 176 177 173 171 167 168 170 171 173 173 167 175 176 167 164 160 168 169 174 187 201 163 129 116 119 110 121 116 112 98 81
245 184 159 284 272 266 328 295 189 164 190 182 182 239 177 240 196 177 178 178 181 173 172 167 174 173 175 178 182 175 177 173 172 168 178 191 181 181 166 132 113 125 128 130 119 83 106 108 85
254 282 235 301 290 13 279 346 6 83 169 208 187 192 220 218 219 179 178 178 183 173 174 171 175 178 176 178 178 183 184 164 169 184 188 175 151 147 146 135 138 134 124 130 121 123 119 88 89
118 232 2 353 4 325 307 298 208 227 211 356 39 260 228 198 203 176 179 178 180 173 173 171 172 176 177 174 180 186 181 167 173 183 173 159 150 137 133 136 136 132 123 122 127 127 101 89 102
320 278 240 160 146 190 296 284 168 195 188 174 83 33 329 168 176 177 172 174 176 167 169 167 172 172 172 176 180 178 182 172 172 170 155 160 132 142 145 141 138 134 135 115 123 125 115 110 110
33 11 41 112 291 229 166 272 314 2 27 150 150 166 188 91 180 176 177 169 173 166 168 166 169 171 176 177 176 179 179 175 171 167 155 144 141 138 133 133 130 133 143 135 133 135 129 134 126